This demonstration page uses our WeatherBlox Daily Observations layout. Learn more.

Left ArrowRight Arrow

Hourly Observations for September 23, 2019

Temp ( °F °C ) Dew Point ( °F °C ) Humidity (%) Winds ( mph kmh ) Pressure ( in mb ) Visibility ( mi km ) Precip ( " mm )
12:15 am 00:15 Clear 73 23 68 20 83 83 SSW 6 9 30.01 1016 10 16 0.00 0.00
12:35 am 00:35 Clear 73 23 68 20 83 83 S 7 11 30.01 1016 10 16 0.00 0.00
12:55 am 00:55 Clear 72 22 68 20 88 88 S 5 7 30.01 1016 10 16 0.00 0.00
1:15 am 01:15 Clear 72 22 68 20 88 88 S 6 9 30.00 1016 10 16 0.00 0.00
1:35 am 01:35 Clear 72 22 66 19 83 83 S 6 9 30.00 1016 10 16 0.00 0.00
1:55 am 01:55 Clear 72 22 66 19 83 83 S 6 9 29.99 1016 10 16 0.00 0.00
2:15 am 02:15 Clear 70 21 66 19 88 88 SSW 5 7 29.99 1016 10 16 0.00 0.00
2:35 am 02:35 Clear 70 21 66 19 88 88 S 6 9 29.99 1016 10 16 0.00 0.00
2:55 am 02:55 Clear 70 21 64 18 83 83 SSW 3 6 29.98 1015 10 16 0.00 0.00
3:15 am 03:15 Clear 70 21 64 18 83 83 Calm 29.97 1015 10 16 0.00 0.00
3:55 am 03:55 Clear 66 19 64 18 94 94 Calm 29.97 1015 10 16 0.00 0.00
4:15 am 04:15 Clear 66 19 64 18 94 94 SSW 5 7 29.96 1015 10 16 0.00 0.00
4:35 am 04:35 Clear 66 19 64 18 94 94 SW 3 6 29.96 1015 10 16 0.00 0.00
4:55 am 04:55 Clear 66 19 64 18 94 94 Calm 29.96 1015 10 16 0.00 0.00
5:15 am 05:15 Clear 66 19 64 18 94 94 Calm 29.96 1015 10 16 0.00 0.00
5:35 am 05:35 Clear 66 19 64 18 94 94 SSW 3 6 29.96 1015 10 16 0.00 0.00
5:55 am 05:55 Clear 68 20 64 18 88 88 S 3 6 29.96 1015 10 16 0.00 0.00
6:35 am 06:35 Clear 68 20 64 18 88 88 Calm 29.97 1015 10 16 0.00 0.00
6:55 am 06:55 Clear 68 20 64 18 88 88 undefined N/A 29.96 1015 10 16 0.00 0.00
7:15 am 07:15 Sunny 64 18 63 17 94 94 Calm 29.97 1015 10 16 0.00 0.00
7:35 am 07:35 Sunny 66 19 64 18 94 94 Calm 29.97 1015 10 16 0.00 0.00
7:55 am 07:55 Sunny 68 20 64 18 88 88 Calm 29.97 1015 10 16 0.00 0.00
8:15 am 08:15 Partly Cloudy 70 21 64 18 83 83 Calm 29.98 1015 10 16 0.00 0.00
8:35 am 08:35 Sunny 72 22 64 18 78 78 Calm 29.99 1016 10 16 0.00 0.00
8:55 am 08:55 Sunny 72 22 64 18 78 78 S 3 6 29.99 1016 10 16 0.00 0.00
9:15 am 09:15 Sunny 73 23 64 18 74 74 Calm 29.99 1015 10 16 0.00 0.00
9:35 am 09:35 Sunny 75 24 66 19 74 74 S 3 6 29.98 1015 10 16 0.00 0.00
9:55 am 09:55 Sunny 77 25 66 19 69 69 SW 3 6 29.96 1015 10 16 0.00 0.00
10:15 am 10:15 Sunny 81 27 64 18 58 58 Calm 29.96 1015 10 16 0.00 0.00
10:35 am 10:35 Sunny 82 28 64 18 55 55 SW 6 9 29.95 1014 N/A 0.00 0.00
10:55 am 10:55 Sunny 84 29 64 18 51 51 SSW 7 11 29.94 1014 N/A 0.00 0.00
11:15 am 11:15 Sunny 86 30 63 17 46 46 SSW 8 13 29.94 1014 N/A 0.00 0.00
11:35 am 11:35 Sunny 88 31 61 16 40 40 SW 12 19 29.93 1013 N/A 0.00 0.00
11:55 am 11:55 Sunny 88 31 61 16 40 40 W 13 20 29.92 1013 N/A 0.00 0.00
12:15 pm 12:15 Sunny 88 31 59 15 38 38 WSW 10 17 29.91 1013 N/A 0.00 0.00
12:35 pm 12:35 Sunny 90 32 59 15 36 36 WSW 10 17 29.91 1013 N/A 0.00 0.00
12:55 pm 12:55 Sunny 90 32 61 16 38 38 W 9 15 29.90 1012 N/A 0.00 0.00
1:15 pm 13:15 Sunny 90 32 59 15 36 36 W 5 7 29.90 1012 10 16 0.00 0.00
1:35 pm 13:35 Sunny 90 32 59 15 36 36 W 6 9 29.89 1012 N/A 0.00 0.00
1:55 pm 13:55 Sunny 90 32 61 16 38 38 W 13 20 29.88 1012 N/A 0.00 0.00
2:15 pm 14:15 Partly Cloudy 90 32 61 16 38 38 WSW 12 19 29.87 1011 10 16 0.00 0.00
2:35 pm 14:35 Sunny 91 33 61 16 36 36 WSW 10 17 29.85 1011 10 16 0.00 0.00
2:55 pm 14:55 Partly Cloudy 91 33 61 16 36 36 WSW 9 15 29.84 1011 N/A 0.00 0.00
3:15 pm 15:15 Mostly Cloudy 91 33 61 16 36 36 WSW 5 7 29.84 1011 N/A 0.00 0.00
3:35 pm 15:35 Mostly Cloudy 90 32 61 16 38 38 SW 9 15 29.84 1010 N/A 0.00 0.00
3:55 pm 15:55 Cloudy 88 31 59 15 38 38 SW 9 15 29.84 1010 N/A 0.00 0.00
4:15 pm 16:15 Cloudy 88 31 59 15 38 38 SW 5 7 29.84 1010 N/A 0.00 0.00
4:35 pm 16:35 Cloudy 88 31 61 16 40 40 WSW 3 6 29.83 1010 N/A 0.00 0.00
4:55 pm 16:55 Cloudy 88 31 61 16 40 40 WSW 6 9 29.83 1010 N/A 0.00 0.00
5:15 pm 17:15 Cloudy 86 30 61 16 43 43 SW 5 7 29.83 1010 N/A 0.00 0.00
5:35 pm 17:35 Mostly Cloudy 86 30 61 16 43 43 SW 6 9 29.82 1010 10 16 0.00 0.00
5:55 pm 17:55 Cloudy 86 30 63 17 46 46 Calm 29.82 1010 N/A 0.00 0.00
6:15 pm 18:15 Mostly Cloudy 84 29 63 17 48 48 NW 3 6 29.82 1010 N/A 0.00 0.00
6:35 pm 18:35 Mostly Cloudy 82 28 64 18 55 55 Calm 29.82 1010 N/A 0.00 0.00
6:55 pm 18:55 Cloudy 82 28 64 18 55 55 NNW 5 7 29.82 1010 10 16 0.00 0.00
7:15 pm 19:15 Cloudy 81 27 68 20 66 66 WNW 8 13 29.83 1010 10 16 0.00 0.00
7:35 pm 19:35 Mostly Cloudy 75 24 68 20 78 78 NW 16 26 29.85 1011 10 16 0.00 0.00
7:55 pm 19:55 Cloudy 73 23 70 21 89 89 NNW 5 7 29.85 1011 10 16 0.00 0.00
8:15 pm 20:15 Cloudy 72 22 70 21 94 94 NNW 7 11 29.86 1011 10 16 0.00 0.00
8:35 pm 20:35 Cloudy 72 22 70 21 94 94 NW 9 15 29.85 1011 N/A 0.00 0.00
8:55 pm 20:55 Cloudy 73 23 70 21 89 89 WNW 7 11 29.86 1011 N/A 0.00 0.00
9:15 pm 21:15 Cloudy 73 23 70 21 89 89 NW 9 15 29.86 1011 N/A 0.00 0.00
9:35 pm 21:35 Partly Cloudy 73 23 68 20 83 83 NW 8 13 29.86 1011 N/A 0.00 0.00
9:55 pm 21:55 Partly Cloudy 73 23 68 20 83 83 WNW 12 19 29.87 1011 10 16 0.00 0.00
10:15 pm 22:15 Partly Cloudy 73 23 68 20 83 83 WNW 9 15 29.87 1011 10 16 0.00 0.00
10:35 pm 22:35 Mostly Cloudy 73 23 68 20 83 83 WNW 9 15 29.87 1011 10 16 0.00 0.00
10:55 pm 22:55 Partly Cloudy 72 22 68 20 88 88 WNW 10 17 29.87 1011 10 16 0.00 0.00
11:15 pm 23:15 Mostly Cloudy 73 23 68 20 83 83 WNW 12 19 29.87 1011 10 16 0.00 0.00
11:35 pm 23:35 Partly Cloudy 73 23 66 19 78 78 WNW 10 17 29.87 1011 10 16 0.00 0.00
11:55 pm 23:55 Clear 72 22 66 19 83 83 WNW 10 17 29.87 1011 10 16 0.00 0.00

Powered by AerisWeather